KE0PRS Weather Reports


time (UTC)temp
C
wind
direction
speed
KPH
gust
KPH
rain 1hr
cm
rain 24hr
cm
rain mn
cm
humidity
%
barometer
mb
20260507144625 12 228 4.8 11.3 0.00 0.00 0.00 63 1016.6
20260507144124 12 220 4.8 9.7 0.00 0.00 0.00 65 1016.4
20260507143620 11 224 6.4 11.3 0.00 0.00 0.00 67 1016.8
20260507143118 11 173 4.8 6.4 0.00 0.00 0.00 70 1016.8
20260507142613 11 175 4.8 11.3 0.00 0.00 0.00 71 1016.8
20260507142110 10 157 3.2 11.3 0.00 0.00 0.00 74 1017.0
20260507141606 11 245 9.7 12.9 0.00 0.00 0.00 73 1016.8
20260507141103 10 164 4.8 6.4 0.00 0.00 0.00 75 1017.2
20260507140559 10 137 6.4 11.3 0.00 0.00 0.00 75 1017.0
20260507140057 10 186 4.8 11.3 0.00 0.00 0.00 77 1017.4
20260507135554 10 135 9.7 14.5 0.00 0.00 0.00 79 1017.4
20260507135051 9 170 1.6 4.8 0.00 0.00 0.00 81 1017.6
20260507134548 8 158 1.6 4.8 0.00 0.00 0.00 83 1017.6
20260507134043 8 191 3.2 3.2 0.00 0.00 0.00 83 1017.6
20260507133540 7 253 3.2 6.4 0.00 0.00 0.00 85 1017.7
20260507133038 7 171 3.2 6.4 0.00 0.00 0.00 87 1017.8
20260507132534 6 217 3.2 3.2 0.00 0.00 0.00 89 1017.6
20260507132031 6 167 3.2 4.8 0.00 0.00 0.00 91 1017.9
20260507131528 6 244 3.2 4.8 0.00 0.00 0.00 92 1017.8
20260507131025 5 173 1.6 3.2 0.00 0.00 0.00 93 1018.1
20260507130522 5 195 1.6 3.2 0.00 0.00 0.00 94 1018.0
20260507130020 4 197 3.2 4.8 0.00 0.00 0.00 95 1018.0
20260507125518 4 185 1.6 3.2 0.00 0.00 0.00 96 1018.0
20260507125015 3 196 0.0 3.2 0.00 0.00 0.00 96 1017.8
20260507124512 3 247 3.2 6.4 0.00 0.00 0.00 96 1017.8
20260507124009 3 151 3.2 6.4 0.00 0.00 0.00 96 1017.7
20260507123507 2 175 1.6 6.4 0.00 0.00 0.00 96 1018.0
20260507123003 2 204 3.2 4.8 0.00 0.00 0.00 96 1018.1
20260507122459 2 164 1.6 3.2 0.00 0.00 0.00 96 1018.0
20260507121955 1 178 1.6 1.6 0.00 0.00 0.00 96 1017.9
20260507121451 1 185 0.0 1.6 0.00 0.00 0.00 96 1018.0
20260507120947 1 170 0.0 1.6 0.00 0.00 0.00 96 1018.0
20260507120443 1 164 0.0 1.6 0.00 0.00 0.00 96 1018.1
20260507115940 1 167 0.0 3.2 0.00 0.00 0.00 96 1017.9
20260507115436 1 167 1.6 3.2 0.00 0.00 0.00 95 1018.1
20260507114932 1 167 0.0 0.0 0.00 0.00 0.00 95 1017.8
20260507114429 2 170 0.0 0.0 0.00 0.00 0.00 95 1018.2
20260507113926 2 165 0.0 1.6 0.00 0.00 0.00 96 1017.9
20260507113423 2 166 1.6 3.2 0.00 0.00 0.00 96 1018.0
20260507112921 2 169 1.6 4.8 0.00 0.00 0.00 96 1017.8
20260507112418 2 201 1.6 4.8 0.00 0.00 0.00 96 1018.0
20260507111915 2 165 1.6 3.2 0.00 0.00 0.00 96 1018.0
20260507111412 1 184 1.6 3.2 0.00 0.00 0.00 96 1018.0
20260507110908 1 182 0.0 1.6 0.00 0.00 0.00 96 1018.0
20260507110404 1 179 1.6 1.6 0.00 0.00 0.00 95 1018.1
20260507105901 1 166 0.0 0.0 0.00 0.00 0.00 95 1018.2
20260507105358 1 174 0.0 1.6 0.00 0.00 0.00 95 1018.1
20260507104855 1 179 1.6 1.6 0.00 0.00 0.00 95 1018.3
20260507104351 1 179 0.0 1.6 0.00 0.00 0.00 95 1018.3
20260507103847 1 179 1.6 1.6 0.00 0.00 0.00 95 1018.5
20260507103344 1 182 1.6 1.6 0.00 0.00 0.00 95 1018.5
20260507102840 2 173 1.6 1.6 0.00 0.00 0.00 95 1018.3
20260507102337 2 173 1.6 1.6 0.00 0.00 0.00 95 1018.3
20260507101834 2 214 3.2 6.4 0.00 0.00 0.00 95 1018.5
20260507101333 2 199 3.2 3.2 0.00 0.00 0.00 95 1018.5
20260507100831 2 223 4.8 4.8 0.00 0.00 0.00 95 1018.4
20260507100329 2 216 3.2 3.2 0.00 0.00 0.00 95 1018.4
20260507095827 3 167 1.6 3.2 0.00 0.00 0.00 95 1018.4
20260507095323 3 185 1.6 1.6 0.00 0.00 0.00 95 1018.4
20260507094820 3 172 0.0 1.6 0.00 0.00 0.00 95 1018.6
20260507094317 3 179 0.0 3.2 0.00 0.00 0.00 95 1018.6
20260507093814 2 190 1.6 4.8 0.00 0.00 0.00 95 1018.7
20260507093312 2 197 1.6 3.2 0.00 0.00 0.00 95 1018.6
20260507092810 2 228 3.2 3.2 0.00 0.00 0.00 95 1018.6
20260507092307 2 181 1.6 1.6 0.00 0.00 0.00 95 1018.6
20260507091803 2 173 1.6 3.2 0.00 0.00 0.00 95 1018.7
20260507091259 2 200 3.2 3.2 0.00 0.00 0.00 95 1018.9
20260507090759 1 163 0.0 1.6 0.00 0.00 0.00 94 1019.1
20260507090256 2 169 0.0 1.6 0.00 0.00 0.00 94 1018.9
20260507085753 2 188 1.6 1.6 0.00 0.00 0.00 94 1019.2
20260507085250 2 179 0.0 0.0 0.00 0.00 0.00 94 1019.1
20260507084747 2 173 0.0 0.0 0.00 0.00 0.00 94 1019.2
20260507084243 2 164 0.0 0.0 0.00 0.00 0.00 94 1019.3
20260507083741 2 169 0.0 0.0 0.00 0.00 0.00 94 1019.1
20260507083238 2 166 1.6 1.6 0.00 0.00 0.00 94 1019.3
20260507082734 2 165 0.0 0.0 0.00 0.00 0.00 94 1019.3
20260507082229 2 167 1.6 1.6 0.00 0.00 0.00 94 1019.3
20260507081727 2 177 0.0 0.0 0.00 0.00 0.00 93 1019.5
20260507081222 2 173 0.0 0.0 0.00 0.00 0.00 93 1019.6
20260507080719 2 167 0.0 0.0 0.00 0.00 0.00 93 1019.6
20260507080215 2 188 0.0 0.0 0.00 0.00 0.00 93 1019.8
20260507075711 2 166 0.0 0.0 0.00 0.00 0.00 93 1019.8
20260507075208 3 160 0.0 0.0 0.00 0.00 0.00 93 1020.0
20260507074704 3 159 0.0 0.0 0.00 0.00 0.00 92 1019.8
20260507074202 3 167 0.0 0.0 0.00 0.00 0.00 92 1020.0
20260507073658 3 171 0.0 0.0 0.00 0.00 0.00 92 1019.9
20260507073154 3 171 0.0 1.6 0.00 0.00 0.00 92 1020.0
20260507072653 3 173 0.0 0.0 0.00 0.00 0.00 92 1020.1
20260507072150 4 168 0.0 4.8 0.00 0.00 0.00 92 1020.2
20260507071648 4 171 1.6 4.8 0.00 0.00 0.00 92 1020.3
20260507071143 4 218 3.2 3.2 0.00 0.00 0.00 92 1020.4
20260507070641 4 194 3.2 3.2 0.00 0.00 0.00 92 1020.2
20260507070138 4 198 3.2 4.8 0.00 0.00 0.00 92 1020.3
20260507065634 4 194 3.2 4.8 0.00 0.00 0.00 91 1020.3
20260507065131 4 264 1.6 6.4 0.00 0.00 0.00 91 1020.3
20260507064628 4 194 1.6 6.4 0.00 0.00 0.00 91 1020.4
20260507064127 4 202 1.6 3.2 0.00 0.00 0.00 91 1020.4
20260507063624 4 202 3.2 3.2 0.00 0.00 0.00 91 1020.3
20260507063121 5 212 1.6 3.2 0.00 0.00 0.00 91 1020.2
20260507062617 5 215 3.2 3.2 0.00 0.00 0.00 91 1020.4
20260507062115 5 205 3.2 3.2 0.00 0.00 0.00 91 1020.6
20260507061613 5 193 3.2 3.2 0.00 0.00 0.00 91 1020.6
20260507061111 5 225 3.2 3.2 0.00 0.00 0.00 91 1020.6
20260507060609 5 199 1.6 3.2 0.00 0.00 0.00 91 1020.4
20260507060105 5 149 1.6 3.2 0.00 0.00 0.00 91 1020.6
20260507055600 5 185 1.6 1.6 0.00 0.00 0.00 91 1020.8
20260507055056 5 166 1.6 3.2 0.00 0.00 0.00 91 1020.8
20260507054553 5 181 3.2 6.4 0.00 0.00 0.00 91 1021.0
20260507054050 5 195 1.6 3.2 0.00 0.00 0.00 91 1020.9
20260507053548 5 209 1.6 3.2 0.00 0.00 0.00 91 1020.7
20260507053046 5 169 1.6 3.2 0.00 0.00 0.00 91 1021.1
20260507052543 5 206 3.2 4.8 0.00 0.00 0.00 91 1021.1
20260507052040 5 210 3.2 4.8 0.00 0.00 0.00 91 1021.1
20260507051538 5 229 1.6 4.8 0.00 0.00 0.00 91 1021.0
20260507051034 5 188 3.2 3.2 0.00 0.00 0.00 91 1021.1
20260507050531 5 161 1.6 3.2 0.00 0.00 0.00 90 1020.7
20260507050027 5 184 1.6 3.2 0.00 0.00 0.00 90 1020.8
20260507045524 5 161 1.6 3.2 0.00 0.36 0.36 90 1020.8
20260507045021 5 178 1.6 1.6 0.00 0.36 0.36 89 1020.9
20260507044518 5 225 3.2 4.8 0.00 0.36 0.36 89 1020.7
20260507044015 5 162 1.6 1.6 0.00 0.36 0.36 89 1020.8
20260507043511 5 163 1.6 4.8 0.00 0.36 0.36 88 1020.9
20260507043008 6 244 1.6 3.2 0.00 0.36 0.36 88 1020.9
20260507042504 6 188 1.6 3.2 0.00 0.36 0.36 88 1020.9
20260507041959 6 191 1.6 4.8 0.00 0.36 0.36 88 1020.9
20260507041457 6 194 3.2 3.2 0.00 0.36 0.36 88 1020.9
20260507040954 6 147 1.6 3.2 0.00 0.36 0.36 88 1021.1
20260507040449 5 200 3.2 4.8 0.00 0.36 0.36 88 1021.0
20260507035945 6 172 0.0 1.6 0.00 0.36 0.36 87 1020.9
20260507035442 6 186 1.6 1.6 0.00 0.36 0.36 86 1021.1
20260507034939 6 216 0.0 1.6 0.00 0.36 0.36 85 1020.9
20260507034436 6 208 1.6 3.2 0.00 0.36 0.36 85 1020.9
20260507033934 6 159 0.0 1.6 0.00 0.36 0.36 85 1020.8
20260507033432 7 168 0.0 0.0 0.00 0.36 0.36 84 1020.8
20260507032928 7 166 0.0 0.0 0.00 0.36 0.36 84 1020.4
20260507032425 7 166 0.0 0.0 0.00 0.36 0.36 83 1020.6
20260507031921 7 164 0.0 0.0 0.00 0.36 0.36 82 1020.3
20260507031418 7 162 0.0 1.6 0.00 0.36 0.36 82 1020.4
20260507030914 8 172 1.6 1.6 0.00 0.36 0.36 82 1020.6
20260507030412 8 169 0.0 0.0 0.00 0.36 0.36 82 1020.3
20260507025909 8 168 0.0 1.6 0.00 0.36 0.36 82 1020.2
20260507025406 8 170 0.0 0.0 0.00 0.36 0.36 82 1020.2
20260507024904 8 165 0.0 0.0 0.00 0.36 0.36 81 1020.3
20260507024401 8 164 0.0 0.0 0.00 0.36 0.36 80 1020.0
20260507023857 8 164 0.0 0.0 0.00 0.36 0.36 79 1020.2
20260507023354 8 164 0.0 0.0 0.00 0.36 0.36 79 1020.2
20260507022851 8 164 0.0 0.0 0.00 0.36 0.36 78 1020.2
20260507022348 8 171 0.0 0.0 0.00 0.36 0.36 77 1020.2
20260507021843 8 170 0.0 0.0 0.00 0.36 0.36 76 1020.2
20260507021339 8 166 0.0 0.0 0.00 0.36 0.36 76 1020.1
20260507020837 8 179 1.6 1.6 0.00 0.36 0.36 76 1020.3
20260507020333 9 168 0.0 0.0 0.00 0.36 0.36 75 1020.0
20260507015831 9 168 0.0 0.0 0.00 0.36 0.36 74 1019.8
20260507015329 9 150 0.0 0.0 0.00 0.36 0.36 71 1019.8
20260507014825 10 152 0.0 0.0 0.00 0.36 0.36 69 1019.8
20260507014322 10 163 0.0 0.0 0.00 0.36 0.36 68 1019.6
20260507013818 10 168 0.0 0.0 0.00 0.36 0.36 66 1019.8
20260507013315 10 176 0.0 1.6 0.00 0.36 0.36 66 1019.8
20260507012813 11 163 0.0 0.0 0.00 0.36 0.36 65 1019.7
20260507012308 11 176 0.0 1.6 0.00 0.36 0.36 64 1019.8
20260507011806 11 159 0.0 0.0 0.00 0.36 0.36 63 1019.6
20260507011302 11 162 0.0 0.0 0.00 0.36 0.36 62 1019.6
20260507010802 11 177 0.0 0.0 0.00 0.36 0.36 61 1019.5
20260507010258 11 166 0.0 1.6 0.00 0.36 0.36 61 1019.4
20260507005756 11 119 1.6 3.2 0.00 0.36 0.36 61 1019.4
20260507005252 11 173 0.0 1.6 0.00 0.36 0.36 61 1019.5
20260507004749 11 164 0.0 1.6 0.00 0.36 0.36 63 1019.5
20260507004246 11 169 0.0 1.6 0.00 0.36 0.36 63 1019.6
20260507003742 11 177 0.0 1.6 0.00 0.36 0.36 61 1019.5
20260507003238 11 186 0.0 1.6 0.00 0.36 0.36 59 1019.4
20260507002734 11 177 1.6 1.6 0.00 0.36 0.36 59 1019.3
20260507002230 11 171 0.0 3.2 0.00 0.36 0.36 59 1019.3
20260507001727 11 181 0.0 1.6 0.00 0.36 0.36 59 1019.2
20260507001225 11 168 0.0 0.0 0.00 0.36 0.36 59 1019.3
20260507000721 12 179 0.0 1.6 0.00 0.36 0.36 58 1019.2
20260507000216 12 251 1.6 3.2 0.00 0.36 0.36 56 1019.1
20260506235713 12 287 0.0 3.2 0.00 0.36 0.36 54 1019.3
20260506235209 13 184 0.0 3.2 0.00 0.36 0.36 52 1019.3
20260506234706 13 181 0.0 4.8 0.00 0.36 0.36 51 1019.4
20260506234203 12 268 4.8 9.7 0.00 0.36 0.36 51 1019.3
20260506233701 13 339 3.2 4.8 0.00 0.36 0.36 52 1019.4
20260506233157 13 157 0.0 4.8 0.00 0.36 0.36 52 1019.3
20260506232653 13 221 1.6 4.8 0.00 0.36 0.36 52 1019.3
20260506232149 13 110 1.6 3.2 0.00 0.36 0.36 51 1019.2
20260506231646 13 137 0.0 4.8 0.00 0.36 0.36 52 1019.3
20260506231145 13 189 3.2 4.8 0.00 0.36 0.36 53 1019.2
20260506230641 12 176 1.6 1.6 0.00 0.36 0.36 54 1019.3
20260506230138 12 315 1.6 4.8 0.00 0.36 0.36 55 1019.3
20260506225634 12 297 1.6 1.6 0.00 0.36 0.36 53 1019.5
20260506225131 13 143 0.0 4.8 0.00 0.36 0.36 51 1019.3
20260506224628 13 129 0.0 4.8 0.00 0.36 0.36 50 1019.5
20260506224124 14 348 4.8 9.7 0.00 0.36 0.36 49 1019.3
20260506223620 13 179 0.0 0.0 0.00 0.36 0.36 52 1019.3
20260506223116 13 218 1.6 3.2 0.00 0.36 0.36 52 1019.4
20260506222614 12 37 6.4 6.4 0.00 0.36 0.36 52 1019.4
20260506222110 12 281 1.6 9.7 0.00 0.36 0.36 55 1019.4
20260506221608 12 272 3.2 4.8 0.00 0.36 0.36 55 1019.4
20260506221106 12 337 4.8 9.7 0.00 0.36 0.36 56 1019.4
20260506220602 12 254 3.2 4.8 0.00 0.36 0.36 58 1019.4
20260506220057 12 173 3.2 9.7 0.00 0.36 0.36 58 1019.6
20260506215554 12 282 4.8 6.4 0.00 0.36 0.36 57 1019.6
20260506215049 11 279 1.6 6.4 0.00 0.36 0.36 57 1019.6
20260506214547 12 31 6.4 6.4 0.00 0.36 0.36 57 1019.6
20260506214044 11 225 1.6 6.4 0.00 0.36 0.36 52 1019.7
20260506213543 11 136 3.2 9.7 0.00 0.36 0.36 57 1019.9
20260506213040 12 343 4.8 6.4 0.00 0.36 0.36 59 1019.8
20260506212536 11 230 1.6 9.7 0.00 0.36 0.36 58 1019.6
20260506212030 12 9 4.8 9.7 0.00 0.36 0.36 59 1019.6
20260506211527 12 160 3.2 12.9 0.00 0.36 0.36 59 1019.8
20260506211024 12 342 4.8 14.5 0.00 0.36 0.36 57 1020.0
20260506210521 12 344 3.2 12.9 0.00 0.36 0.36 58 1019.9
20260506210017 12 35 6.4 6.4 0.00 0.36 0.36 60 1019.9
20260506205514 13 188 3.2 12.9 0.00 0.36 0.36 57 1020.0
20260506205009 12 257 4.8 4.8 0.00 0.36 0.36 58 1020.1
20260506204508 13 268 3.2 11.3 0.00 0.36 0.36 57 1020.1
20260506204004 12 156 0.0 1.6 0.00 0.36 0.36 56 1020.1
20260506203502 12 135 0.0 6.4 0.00 0.36 0.36 60 1020.2
20260506202959 12 291 3.2 4.8 0.00 0.36 0.36 61 1020.3
20260506202456 12 313 3.2 6.4 0.00 0.36 0.36 60 1020.3
20260506201952 12 153 0.0 6.4 0.00 0.36 0.36 62 1020.3
20260506201450 11 90 3.2 4.8 0.00 0.36 0.36 64 1020.4
20260506200946 11 102 0.0 4.8 0.00 0.36 0.36 63 1020.3
20260506200443 11 302 4.8 4.8 0.00 0.36 0.36 66 1020.3
20260506195939 11 98 3.2 6.4 0.00 0.36 0.36 67 1020.4
20260506195436 11 48 3.2 6.4 0.00 0.36 0.36 67 1020.3
20260506194933 11 2 6.4 11.3 0.00 0.36 0.36 67 1020.8
20260506194430 11 91 3.2 9.7 0.00 0.36 0.36 68 1020.6
20260506193927 10 320 9.7 11.3 0.00 0.36 0.36 68 1020.6
20260506193424 10 105 3.2 11.3 0.00 0.36 0.36 69 1020.7
20260506192920 10 326 6.4 9.7 0.00 0.36 0.36 70 1020.8
20260506192417 10 71 6.4 9.7 0.00 0.36 0.36 69 1020.8
20260506191914 11 268 3.2 9.7 0.00 0.36 0.36 68 1020.9
20260506191410 10 114 1.6 4.8 0.00 0.36 0.36 69 1020.9
20260506190908 10 157 3.2 6.4 0.00 0.36 0.36 70 1020.8
20260506190404 10 185 1.6 3.2 0.00 0.36 0.36 71 1021.0
20260506185901 10 34 4.8 6.4 0.00 0.36 0.36 71 1020.9
20260506185358 10 124 4.8 14.5 0.00 0.36 0.36 71 1021.1
20260506184855 10 181 3.2 11.3 0.00 0.36 0.36 72 1021.0
20260506184352 10 100 6.4 11.3 0.00 0.36 0.36 74 1021.2
20260506183849 10 176 4.8 9.7 0.00 0.36 0.36 74 1021.1
20260506183344 10 107 4.8 11.3 0.00 0.36 0.36 74 1021.2
20260506182842 10 96 3.2 6.4 0.00 0.36 0.36 72 1021.1
20260506182339 10 153 1.6 9.7 0.00 0.36 0.36 67 1021.2
20260506181836 10 67 0.0 12.9 0.00 0.36 0.36 68 1021.2
20260506181335 10 156 0.0 4.8 0.00 0.36 0.36 67 1021.1
20260506180831 10 128 0.0 1.6 0.00 0.36 0.36 68 1021.1
20260506180327 10 110 3.2 4.8 0.00 0.36 0.36 68 1021.2
20260506175824 10 326 4.8 6.4 0.00 0.36 0.36 66 1021.1
20260506175321 10 110 3.2 3.2 0.00 0.36 0.36 67 1021.1
20260506174818 10 107 0.0 4.8 0.00 0.36 0.36 66 1021.2
20260506174315 10 115 1.6 4.8 0.00 0.36 0.36 67 1021.3
20260506173812 10 140 0.0 3.2 0.00 0.36 0.36 71 1021.3
20260506173309 10 164 0.0 6.4 0.00 0.36 0.36 71 1021.2
20260506172806 10 348 0.0 3.2 0.00 0.36 0.36 69 1021.2
20260506172306 10 136 0.0 1.6 0.00 0.36 0.36 70 1021.2
20260506171800 10 93 0.0 4.8 0.00 0.36 0.36 73 1021.1
20260506171257 10 19 4.8 4.8 0.00 0.36 0.36 71 1021.3
20260506170755 10 94 4.8 9.7 0.00 0.36 0.36 73 1021.1
20260506170251 9 128 1.6 4.8 0.00 0.36 0.36 75 1021.3
20260506165750 9 39 6.4 11.3 0.00 0.36 0.36 76 1021.5
20260506165247 8 149 1.6 3.2 0.00 0.36 0.36 76 1021.2
20260506164744 8 143 0.0 1.6 0.00 0.36 0.36 77 1021.6
20260506164240 8 104 1.6 3.2 0.00 0.36 0.36 78 1021.4
20260506163737 8 23 3.2 6.4 0.00 0.36 0.36 79 1021.5
20260506163232 8 141 1.6 3.2 0.00 0.36 0.36 80 1021.2
20260506162728 7 157 0.0 3.2 0.00 0.36 0.36 82 1021.4
20260506162226 7 71 1.6 4.8 0.00 0.36 0.36 81 1021.4
20260506161723 7 130 1.6 6.4 0.00 0.36 0.36 81 1021.3
20260506161220 7 13 3.2 6.4 0.00 0.36 0.36 84 1021.3
20260506160718 7 130 3.2 4.8 0.00 0.36 0.36 84 1021.1
20260506160214 7 148 1.6 6.4 0.00 0.36 0.36 84 1021.0
20260506155713 7 138 0.0 3.2 0.00 0.36 0.36 86 1021.0
20260506155210 7 143 0.0 4.8 0.00 0.36 0.36 87 1020.8
20260506153311 6 32 6.4 12.9 0.00 0.36 0.36 89 1020.9
20260506152808 6 136 6.4 11.3 0.00 0.36 0.36 90 1021.1
20260506152306 6 133 3.2 3.2 0.00 0.36 0.36 91 1020.9
20260506151805 6 159 0.0 3.2 0.00 0.36 0.36 91 1020.9
20260506151301 6 167 0.0 6.4 0.00 0.36 0.36 92 1020.9
20260506150757 6 168 1.6 1.6 0.00 0.36 0.36 92 1021.1
20260506150302 6 20 3.2 4.8 0.00 0.36 0.36 92 1020.9
20260506145751 6 131 1.6 4.8 0.00 0.36 0.36 92 1021.0
20260506145248 6 179 1.6 6.4 0.00 0.36 0.36 92 1021.1
20260506144745 6 172 1.6 4.8 0.18 0.36 0.36 93 1021.1